Location: Agua Amarilla
(10.0342°N, 66.8490°W)
Time: 04:33:53
(UTC+00:00)

Cosmos 1943 - Pass Details

Date: 26 June 2022
Orbit: 834 x 848 km, 71.0° (Epoch: 18 August)

Event Time Altitude Azimuth Distance (km) Brightness Sun altitude
Rises 23:40:45 0° 187° (S) 3,400 6.2 -11.8°
Reaches altitude 10° 23:43:14 10° 184° (S) 2,464 5.4 -12.3°
Maximum altitude 23:48:48 59° 105° (ESE) 967 3.2 -13.5°
Drops below altitude 10° 23:54:20 10° 26° (NNE) 2,455 5.6 -14.8°
Sets 23:56:48 0° 23° (NNE) 3,387 6.4 -15.3°
